Powrót do katalogu

H-2A R/B

AktywnyHEO
NORAD 26899·ROCKET BODY·🇯🇵 Japan

Wystrzelony Aug 29, 2001 z Tanegashima Space Center

Loading…

Następne Przeloty (najbliższe 24 godziny)

TLE

ŚwieżeSource: Space-Track

Epoka: Sep 14, 2026, 08:45 UTC

1 26899U 01038B   26257.36493742  .00001683  00000-0  30118-3 0  9990
2 26899  28.1329  84.8034 6988714 345.5844   1.8055  2.66633223222563

Śledź H-2A R/B w czasie rzeczywistym z AllMySat

Download on the App Store